#timestamp,LO_Frequency,Hit,StdDev 
1710615615.4,286047001.3,N
1710615635.3,286047003.2,N
1710615655.1,286047003.5,N
1710615675.9,286047001.4,N
1710615695.7,286047001.8,N
1710615715.5,286047001.6,N
1710615735.4,286047002.7,N
1710615755.2,286047002.1,N
1710615775.1,286046999.8,N
1710615776.0,286046999.8,N
1710615795.8,286047002.3,N
1710615815.6,286047002.4,N
1710615835.5,286047002.3,N
1710615855.3,286047002.0,N
1710615875.1,286047001.9,N
1710615895.9,286047001.5,N
1710615915.7,286047002.0,N
1710615935.6,286047004.0,Y
1710615955.4,286046999.8,P
1710615975.2,286047002.3,N
1710615995.1,286047000.8,N
1710615996.0,286047000.8,N
1710616015.8,286047000.5,N
1710616035.7,286046999.8,N
1710616055.5,286047000.4,N
1710616075.3,286047001.0,N
1710616095.2,286047000.8,N
1710616115.0,286047000.6,N
1710616115.9,286047000.6,N
1710616135.8,286047001.1,N
1710616155.6,286047000.8,N
1710616175.4,286047001.1,N
1710616195.3,286046998.1,Y
1710616215.1,286046999.0,P
1710616235.9,286046996.6,P
1710616255.7,286046997.2,N
1710616275.5,286046997.8,N
1710616295.4,286046996.8,N
1710616315.2,286046999.1,N
1710616335.0,286046999.5,N
1710616335.9,286046999.5,N
1710616355.8,286046997.5,N
1710616375.6,286046996.9,N
1710616395.5,286046996.6,N
1710616415.3,286046996.9,N
1710616435.1,286046997.8,N
1710616455.9,286046996.6,N
1710616475.7,286046999.4,N
1710616495.5,286046998.4,N
1710616515.4,286046998.6,N
1710616535.2,286047001.0,N
1710616555.1,286046999.7,N
1710616556.0,286046999.7,N
1710616575.8,286047002.8,N
1710616595.6,286047002.5,N
1710616615.5,286047000.2,N
1710616635.3,286047000.1,N
1710616655.1,286047000.7,N
1710616675.9,286047000.9,N
1710616695.7,286046998.5,N
1710616715.6,286047001.1,N
1710616735.4,286047001.2,N
1710616755.2,286047002.8,N
1710616775.1,286047000.0,N
1710616776.0,286047000.0,N
1710616795.8,286047000.7,N
1710616815.6,286047000.8,N
1710616835.5,286046998.8,N
1710616855.3,286046999.5,N
1710616875.2,286046998.9,N
1710616895.9,286046998.7,N
1710616915.7,286046998.6,N
1710616935.6,286047000.6,N
1710616955.4,286046999.9,N
1710616975.2,286047001.8,N
1710616995.1,286047002.2,N
1710616996.0,286047002.2,N
1710617015.8,286047002.1,N
1710617035.7,286047002.2,N
1710617055.5,286047004.2,Y
1710617075.3,286047000.3,P
1710617095.2,286047000.8,P
1710617115.0,286047001.2,P
1710617115.9,286047001.2,Y
1710617135.8,286046998.4,P
1710617155.6,286046998.5,N
1710617175.4,286046998.3,N
1710617195.3,286047001.1,N
1710617215.1,286046999.3,N
1710617235.9,286046999.1,N
1710617255.7,286046998.9,N
1710617275.5,286046999.0,N
1710617295.4,286046998.7,N
1710617315.2,286046999.3,N
1710617335.1,286046998.1,N
1710617336.0,286046998.1,N
1710617355.8,286046998.4,N
1710617375.6,286046998.6,N
1710617395.5,286047002.8,Y
1710617415.3,286047002.5,P
1710617435.2,286047000.6,N
1710617455.9,286047000.7,N
1710617475.7,286046999.1,N
1710617495.6,286046998.9,N
1710617515.4,286046996.5,N
1710617535.2,286046997.3,N
1710617555.1,286046997.2,N
1710617556.0,286046997.2,N
1710617575.8,286046998.7,N
1710617595.7,286046999.3,N
1710617615.5,286047001.2,N
1710617635.3,286046998.8,N
1710617655.2,286046999.9,N
1710617675.0,286047000.9,N
1710617675.9,286047000.9,N
1710617695.8,286047000.8,N
1710617715.6,286047000.2,N
1710617735.4,286047000.3,N
1710617755.3,286047002.8,N
1710617775.1,286046999.8,N
1710617795.8,286047000.4,N
1710617815.7,286047000.0,N
1710617835.5,286047001.0,N
1710617855.4,286047002.7,N
1710617875.2,286047000.2,N
1710617895.0,286047001.1,N
1710617895.9,286047001.1,N
1710617915.8,286047000.4,N
1710617935.6,286046998.5,N
1710617955.5,286046999.4,N
1710617975.3,286046999.3,N
1710617995.1,286046999.6,N
1710618015.9,286046998.3,N
1710618035.7,286046998.7,N
1710618055.6,286046998.7,N
1710618075.4,286047001.2,N
1710618095.2,286047000.8,N
1710618115.1,286046999.8,N
1710618116.0,286046999.8,N
1710618135.8,286047002.8,N
1710618155.6,286047002.5,N
1710618175.5,286047002.4,N
1710618195.3,286047000.4,N
1710618215.2,286047002.8,N
1710618235.9,286047002.4,N
1710618255.7,286047001.4,N
1710618275.6,286047001.6,N
1710618295.4,286047001.6,N
1710618315.3,286047002.0,N
1710618335.1,286047000.2,N
1710618336.0,286047000.2,N
1710618355.8,286047000.1,N
1710618375.7,286047000.5,N
1710618395.5,286047001.1,N
1710618415.3,286046998.3,N
1710618435.2,286046998.4,N
1710618455.0,286046999.2,N
1710618455.9,286046999.2,N
1710618475.8,286046999.1,N
1710618495.6,286046999.3,N
1710618515.4,286046998.9,N
1710618535.3,286047000.7,N
1710618555.1,286046998.3,N
1710618575.8,286046998.1,N
1710618595.7,286047000.5,N
1710618615.5,286047001.2,N
1710618635.4,286047000.7,N
1710618655.2,286047000.2,N
1710618675.0,286047000.2,N
1710618675.9,286047000.2,N
1710618695.8,286047002.5,N
1710618715.6,286047000.0,N
1710618735.4,286047001.2,N
1710618755.3,286046998.8,N
1710618775.1,286046997.4,N
1710618795.9,286046994.9,Y
1710618815.7,286046995.0,P
1710618835.5,286046996.7,N
1710618855.4,286046995.2,N
1710618875.3,286046996.8,N
1710618895.1,286047001.1,N
1710618915.9,286046998.3,N
1710618935.7,286046999.3,N
1710618955.5,286046998.9,N
1710618975.4,286047000.3,N
1710618995.2,286046999.0,N
1710619015.1,286047000.7,N
1710619016.0,286047000.7,N
1710619035.8,286047001.1,N
1710619055.6,286047000.9,N
1710619075.5,286046999.9,N
1710619095.3,286046999.7,N
1710619115.1,286047000.5,N
1710619135.9,286047001.2,N
1710619155.7,286046998.7,N
1710619175.6,286046998.2,N
1710619195.4,286046999.6,N
